User: anonymous
Location: Unspecified
(0.0000°N, 0.0000°E)
Time: 12:06:16
(UTC+02:00)
Language:

DELTA 2 R/B (1) - Orbit

View from above orbital plane
View from above orbital plane
View from above satellite
View from above satellite

Ground track
Ground track

The orbit data is extracted from the following two-line orbital elements,

1 27665U 03005C   14263.83396929 -.00000047  00000-0  15139-4 0  1211
2 27665 039.5747 163.2731 0010262 244.7434 171.2872 14.28220344607860
Epoch (UTC): 20 September 2014 20:00:54
Eccentricity: 0.0010262
inclination: 39.5747°
perigee height: 790 km
apogee height: 805 km
right ascension of ascending node: 163.2731°
argument of perigee: 244.7434°
revolutions per day: 14.28220344
mean anomaly at epoch: 171.2872°
orbit number at epoch: 60786

The dashed part of the orbit path shows where the satellite is in the earth's shadow,  

DLR